Home > Weather > Bramsche > Past weeks

Flag for Germany Past Weather in Bramsche, Lower Saxony, Germany — Yesterday and Last 2 Weeks

Now
59 °F

Fog.


Feels Like: 59 °F
Forecast: 58 / 72 °F
Wind: No wind

Location: Muenster / Osnabrueck

Current Time: Jul 26, 2016 at 6:33:35 AM

Latest Report: Jul 26, 2016 at 5:50 AM


Visibility: N/A

Pressure: 30.12 "Hg

Humidity: 94%

Dew Point: 57 °F

Location of BramscheLocation

Past Weather in Bramsche — Graph

°F

Bramsche Temperature Yesterday

Maximum temperature yesterday: 79 °F (at 1:20 PM)
Minimum temperature yesterday: 64 °F (at 11:20 PM)
Average temperature yesterday: 72 °F

High & Low Weather Summary for the Past Weeks

 TemperatureHumidityPressure
High93 °F (Jul 20, 3:50 PM)100% (Jul 13, 2:50 AM)30.27 "Hg (Jul 13, 2:50 AM)
Low48 °F (Jul 14, 5:20 AM)23% (Jul 19, 12:50 PM)29.77 "Hg (Jul 11, 5:20 AM)
Average68 °F72%30.05 "Hg
* Reported Jul 11 5:20 AM — Jul 26 5:20 AM, Bramsche, Weather by CustomWeather, © 2016

Note: Actual official high and low records may vary slightly from our data, if they occured in-between our weather recording intervals... More about our weather records

Advertising

Bramsche Weather History for the Previous 24 Hours

Scroll right to see more
 ConditionsComfort  
Time TempWeatherWind HumidityBarometerVisibility
5:20 AM
Tue, Jul 26
61 °FPassing clouds.1 mph88%30.12 "HgN/A
4:50 AM61 °FPassing clouds.2 mph94%30.12 "HgN/A
4:20 AM61 °FPassing clouds.3 mph88%30.12 "HgN/A
3:50 AM61 °FPassing clouds.2 mph88%30.12 "HgN/A
3:20 AM63 °FClear.2 mph88%30.12 "Hg10 mi
2:50 AM64 °FPassing clouds.5 mph83%30.12 "HgN/A
2:20 AM63 °FPassing clouds.2 mph94%30.12 "HgN/A
1:50 AM64 °FPassing clouds.2 mph88%30.12 "HgN/A
1:20 AM63 °FPassing clouds.No wind94%30.12 "HgN/A
12:50 AM63 °FClear.No wind94%30.12 "Hg10 mi
12:20 AM63 °FClear.2 mph88%30.12 "Hg10 mi
11:50 PM
Mon, Jul 25
64 °FPassing clouds.3 mph83%30.12 "HgN/A
11:20 PM64 °FClear.6 mph88%30.12 "Hg10 mi
10:50 PM66 °FPassing clouds.8 mph83%30.12 "HgN/A
10:20 PM68 °FPassing clouds.6 mph83%30.09 "HgN/A
9:50 PM70 °FPassing clouds.8 mph78%30.09 "HgN/A
9:20 PM72 °FScattered clouds.6 mph73%30.09 "HgN/A
8:50 PM72 °FScattered clouds.5 mph73%30.07 "HgN/A
8:20 PM73 °FPassing clouds.6 mph69%30.07 "HgN/A
7:50 PM73 °FScattered clouds.8 mph69%30.07 "HgN/A
7:20 PM77 °FScattered clouds.10 mph61%30.07 "HgN/A
6:50 PM77 °FPassing clouds.10 mph65%30.07 "HgN/A
6:20 PM77 °FPassing clouds.12 mph61%30.07 "HgN/A
5:50 PM77 °FBroken clouds.10 mph61%30.07 "HgN/A
5:20 PM77 °FBroken clouds.8 mph65%30.07 "HgN/A
4:50 PM75 °FPartly sunny.10 mph61%30.07 "HgN/A
4:20 PM75 °FPartly sunny.8 mph65%30.07 "HgN/A
3:50 PM75 °FPartly sunny.10 mph65%30.07 "HgN/A
3:20 PM75 °FPartly sunny.10 mph65%30.07 "HgN/A
2:50 PM77 °FPartly sunny.8 mph57%30.07 "HgN/A
2:20 PM77 °FPartly sunny.12 mph57%30.07 "HgN/A
1:50 PM79 °FScattered clouds.12 mph54%30.07 "HgN/A
1:20 PM79 °FScattered clouds.13 mph58%30.07 "HgN/A
12:50 PM77 °FPartly sunny.10 mph57%30.07 "HgN/A
12:20 PM75 °FPartly sunny.12 mph61%30.07 "HgN/A
11:50 AM77 °FPartly sunny.12 mph57%30.07 "HgN/A
11:20 AM77 °FPartly sunny.10 mph57%30.07 "HgN/A
10:50 AM75 °FPartly sunny.9 mph57%30.07 "HgN/A
10:20 AM73 °FPartly sunny.9 mph65%30.07 "HgN/A
9:50 AM73 °FBroken clouds.7 mph74%30.07 "HgN/A
9:20 AM72 °FBroken clouds.6 mph83%30.07 "HgN/A
8:50 AM70 °FBroken clouds.2 mph83%30.07 "Hg5 mi
8:20 AM70 °FPartly sunny.3 mph83%30.07 "Hg4 mi
7:50 AM68 °FFog.3 mph88%30.07 "Hg3 mi
7:20 AM68 °FFog.5 mph88%30.07 "Hg2 mi
6:50 AM68 °FFog.6 mph88%30.07 "Hg2 mi
6:20 AM68 °FPassing clouds.3 mph88%30.07 "Hg4 mi
Weather by CustomWeather, © 2016

See weather overviewHow to use our weather pages